Content
SEND FEEDBACK

Daily
Averages
Monthly
Summary
United States of America

STRATTON, COLORADO


Home > North America > United States > Colorado
Elevation: 4401 feet     Latitude: 39 18N     Longitude: 102 35W

WEATHER
 
SELECT A DAY
Number of Records: 178,508;   Date Range: 4/10/97 - 10/30/14
 
SHARE

PRINT THIS DATA

[ ← Previous Day ]
WEATHER ALMANAC - JANUARY 31, 2013
[ Next Day → ]
[ °C ]   °F
Weather ElementAverageHighLow
Temperature29 °F39 °F (2:53 pm)17.1 °F (11:53 pm)
Dewpoint17.6 °F21.9 °F (8:53 am)10.9 °F (6:53 pm)
Humidity64.3 %89 % (9:53 pm)43 % (12:53 pm)
Barometer30.14 in30.29 in (6:53 pm)29.92 in (1:53 am)
Wind Speed10.9 mph18.4 mph (11:53 am)
Wind Gust24.2 mph (12:53 pm)
Weather ElementAverage
Visibility9.8 mi
Wind DirectionSSW (191.7 °)

Weather ElementTotal
Precipitation---
Heating Degree Days37 (Base 65)
Averaged from 24 records on January 31, 2013
WEATHER CONDITIONS BREAKOUT
WIND DIRECTION BREAKOUT
WEATHER BY HOUR - JANUARY 31, 2013
[ °C ]   °F
Local TimeTemperatureDewpointHumidityBarometerVisibilityWind DirectionWind SpeedGust SpeedPrecipitationEventsConditions
1:53 AM32.0 °F15.1 °F50 %29.92 in10.0 miWest (260°)6.9 mphOvercast
2:53 AM30.9 °F16.0 °F54 %29.93 in10.0 miWSW (250°)5.8 mphOvercast
3:53 AM30.0 °F17.1 °F59 %29.94 in10.0 miWest (280°)4.6 mphOvercast
4:29 AM30.2 °F19.4 °F64 %29.93 in10.0 miNorth (10°)11.5 mphOvercast
4:53 AM28.9 °F19.9 °F69 %30.00 in10.0 miNorth (360°)9.2 mphOvercast
5:53 AM28.0 °F19.9 °F72 %30.06 in10.0 miNorth (360°)8.1 mphOvercast
6:53 AM28.0 °F19.9 °F72 %30.10 in10.0 miNorth (360°)5.8 mphOvercast
7:53 AM28.9 °F19.0 °F67 %30.12 in10.0 miNorth (10°)10.4 mphOvercast
8:53 AM30.0 °F21.9 °F72 %30.16 in10.0 miNorth (10°)15.0 mphMostly Cloudy
9:10 AM30.2 °F21.2 °F69 %30.10 in7.0 miNorth (10°)13.8 mph0.00 inSnowLight Snow
9:53 AM33.1 °F21.9 °F64 %30.18 in10.0 miNNW (340°)13.8 mph0.00 inScattered Clouds
10:53 AM36.0 °F21.0 °F55 %30.18 in10.0 miNorth (360°)17.3 mphClear
11:53 AM37.0 °F19.0 °F48 %30.19 in10.0 miNorth (10°)18.4 mph21.9 mphClear
12:53 PM37.9 °F17.1 °F43 %30.17 in10.0 miNorth (360°)16.1 mph24.2 mphClear
1:53 PM37.9 °F17.1 °F43 %30.16 in10.0 miNorth (10°)11.5 mph18.4 mphClear
2:53 PM39.0 °F18.0 °F43 %30.17 in10.0 miNorth (350°)9.2 mph17.3 mphClear
3:53 PM35.1 °F18.0 °F50 %30.19 in10.0 miENE (60°)10.4 mphClear
5:53 PM23.0 °F12.9 °F65 %30.26 in10.0 miSE (130°)8.1 mphClear
6:53 PM19.9 °F10.9 °F68 %30.29 in10.0 miSSE (150°)9.2 mphClear
7:53 PM21.0 °F12.0 °F68 %30.28 in10.0 miSouth (170°)12.7 mphClear
8:53 PM21.0 °F16.0 °F81 %30.27 in10.0 miSouth (180°)15.0 mphClear
9:53 PM19.9 °F17.1 °F89 %30.27 in10.0 miSSE (160°)9.2 mphClear
10:53 PM19.9 °F17.1 °F89 %30.25 in10.0 miSSW (200°)10.4 mphClear
11:53 PM17.1 °F14.0 °F88 %30.26 in9.0 miSSW (210°)9.2 mphClear
Hourly data recorded from KITR, located miles away from Stratton, Colorado







STORIES FROM OUR PARTNERS